NOAA 16 DEB, 41715

Orbit data source: Space-Track

NOAA 16 DEB, 41715 is space debris in SSO originally from a launch on Thu, 21 Sep 2000 UTC launched from the Air Force Western Test Range (AFWTR). Debris objects in space refer to the collection of defunct objects orbiting the Earth. Examples of debris include non-operational satellites, rocket bodies, and fragments generated from explosions, collisions, or faulty payload assembly.

Loading next visibility...
Identifier
41715, 2000-055PV
Orbit
SSO
Country
Flag of USUS
Related business
Manufacturer
Unknown
Mission
Spacecraft
Bus & Motor
Unknown
Mass
Unknown
Launch date (UTC)
2000-09-21 (26 years ago)
Launch vehicle
Unknown
Launch site
Air Force Western Test Range (AFWTR)
Object type
Payload
Rocket body
Debris
Shape & HBR
Unknown shape, 0.1 m
Radar Cross Section
Small (<0.1 m²)

Expand to show TLE details & history
Last TLE update: 3 days ago

TLE from 3 days ago
0 NOAA 16 DEB
1 41715U 00055PV  26260.39115520  .00003197  00000-0  11678-2 0  9995
2 41715  98.6383 306.4892 0010804  67.6788 292.5541 14.33658444539764
Epoch: 2026-09-17T09:23Z
TLE epoch observation values (Epoch: 2026-09-17T09:23:15.809Z)
Latitude
0.00004°
Longitude
169.34425°
Altitude
779.504 km
Speed
7.466 km/s
True Right ascension
20h 25m 57s
True Declination
0° 00' 00"
Sunlit
Object was in full shadow at epoch
Visualization orbit readout
Latitude
Unknown
Longitude
Unknown
Altitude
Unknown
Speed
Unknown
Apparent Right ascension
Unknown
Apparent Declination
Unknown
Sunlit
N/A
Visualization observer readout
Local Sidereal Time
06:08:27
Azimuth
Unknown
Elevation
Unknown
Doppler factor
Unknown
Orbital elements
Apogee altitude
784.395 km
Perigee altitude
768.935 km
Semi-major axis
7,154.802 km
Eccentricity
0.00108
Inclination
98.6383°
RAAN
306.4892°
Arg. of periapsis
67.6788°
True anomaly
292.4397°
Mean anomaly
292.5541°
Eccentric anomaly
292.49691°
Mean motion
3.5863 °/min
Orbital period
100.38 mins
BSTAR
0.0011678
Loading maneuver chart data...
Computing Atmospheric mass density...
Loading historical data...
Loading historical data...
Loading historical data...
Loading historical data...
Loading historical data...
Loading historical data...
Loading historical data...

Documentation

Showing up to 5 results
|